Probability
0 0 0 0 0 0 0 0 0 0 0 0 2 8 14 16 16 17 17 15 12 9 8 8 8 8 8 10 17 22 22 21 21 22 24 25 24 22 20 18 18 18 18 19
0 0 0 0 0 0 0 0 0 0 0 0 2 7 13 15 15 15 14 12 9 8 9 9 9 8 8 9 13 17 19 18 18 20 23 23 21 20 17 16 15 15 15 17
0 0 0 0 0 0 0 0 0 0 0 0 1 4 9 13 14 13 11 9 7 6 8 8 8 7 6 5 7 10 13 15 16 17 20 19 18 16 14 13 13 13 13 14
0 0 0 0 0 0 0 0 0 0 0 0 0 2 6 10 12 11 11 10 7 4 5 6 5 4 3 2 2 4 8 13 16 16 16 16 15 14 12 12 13 13 13 13
0 0 0 0 0 0 0 0 0 0 0 0 0 1 4 7 9 10 10 9 6 4 4 5 4 2 2 1 0 1 4 8 12 14 13 11 11 11 11 11 12 12 12 12
0 0 0 0 0 0 0 0 0 0 0 0 0 1 3 6 7 8 8 7 6 6 5 4 4 3 3 2 1 1 1 3 6 9 9 8 8 10 10 10 11 11 11 11
0 0 0 0 0 0 0 0 0 0 0 1 2 2 4 6 7 8 8 7 7 7 4 2 3 3 3 3 3 2 2 2 3 5 6 8 9 10 10 10 10 10 9 9
0 0 0 0 0 0 0 0 0 0 1 2 3 3 4 5 7 8 8 8 8 5 1 1 2 3 3 3 3 3 3 3 3 3 4 6 8 8 9 9 10 9 8 7
0 0 0 0 0 1 1 1 0 1 1 3 3 3 4 5 7 8 7 8 8 4 0 0 1 1 2 2 2 2 2 3 3 3 3 4 5 6 7 9 10 9 8 6
0 0 0 0 1 2 2 2 2 2 3 3 3 3 4 6 8 7 6 8 9 4 0 0 0 0 1 1 1 1 1 1 2 3 3 3 3 4 5 7 8 7 6 5
0 0 0 1 1 3 3 3 3 3 3 3 3 3 4 8 10 8 7 9 8 4 0 0 0 0 0 0 0 1 1 0 1 1 2 3 3 3 3 4 4 3 2 2
1 1 1 2 3 3 3 3 3 3 3 3 3 3 5 9 12 10 8 8 7 3 0 0 0 0 0 0 1 2 2 1 1 1 2 3 3 3 3 1 1 0 0 0
2 2 2 2 2 3 2 2 2 3 3 3 3 3 5 9 11 10 8 8 6 2 0 0 0 0 0 0 1 2 3 3 2 2 2 3 3 3 2 1 1 1 0 0
3 3 3 2 1 1 1 1 1 3 3 3 3 3 5 9 10 9 8 7 5 1 0 0 0 0 0 0 0 1 2 3 3 3 4 3 3 2 3 3 2 2 1 1
3 3 3 2 1 0 0 0 1 3 3 3 3 4 7 10 10 9 7 5 3 1 0 0 0 0 0 0 0 0 1 1 2 4 4 4 3 3 3 3 3 3 3 2
2 3 3 2 1 0 0 1 2 3 3 3 4 6 9 9 9 8 6 3 2 2 1 0 0 1 1 1 0 0 1 1 1 2 3 3 3 3 3 2 2 3 3 3
1 1 2 2 1 1 1 2 3 3 3 4 6 8 9 8 7 7 5 2 2 2 1 0 1 2 2 2 1 0 1 1 0 0 2 3 3 3 2 1 1 2 3 3
1 0 1 1 2 2 3 3 3 3 4 5 8 8 7 6 5 5 4 2 1 2 1 1 1 2 3 2 1 0 1 1 0 0 1 2 3 3 2 1 1 2 2 2
2 1 1 1 1 2 3 3 3 3 4 7 9 7 4 2 3 4 3 1 0 1 2 2 1 2 3 3 1 0 0 0 0 0 1 1 2 3 3 2 1 1 1 1
3 3 2 1 1 2 3 3 3 3 5 7 8 6 3 2 3 3 2 1 0 1 2 3 3 3 3 3 2 0 0 0 0 0 0 0 1 1 2 2 2 2 1 0
2 2 2 1 1 2 3 3 3 4 5 6 6 5 3 3 4 3 1 0 0 0 1 3 3 3 3 3 2 1 1 0 0 0 0 0 0 0 1 1 2 3 2 1
1 1 1 1 1 3 3 4 4 5 4 4 3 2 2 2 2 2 1 1 1 1 1 3 3 3 3 3 3 2 2 1 1 1 1 1 0 0 0 0 1 2 2 2
1 1 2 2 3 3 3 4 4 4 3 1 1 0 0 0 0 0 1 2 2 2 3 3 3 3 3 3 3 3 2 2 2 2 2 2 2 2 1 0 0 1 2 2
0 1 3 3 3 3 3 3 2 1 1 0 0 0 0 0 0 0 1 2 3 3 3 3 3 3 3 2 2 2 3 3 3 3 3 3 3 2 1 0 0 0 1 1
0 1 2 3 2 2 2 2 1 0 0 0 0 0 0 0 0 0 0 1 1 3 3 3 3 3 2 1 1 2 3 3 3 3 3 3 3 2 1 0 0 0 0 0
0 1 2 3 1 1 1 1 0 0 0 0 0 0 0 0 0 0 0 0 1 2 3 3 3 2 1 0 0 1 3 3 3 3 3 3 3 2 2 1 0 0 0 0
Wind_Speed
9 10 10 9 6 2 6 7 8 7 6 6 7 8 9 8 7 7 7 7 7 7 7 7 7 7 7 7 7 6 5 4 2 1 0 0 0 0 1 1 1 2 2 2
10 10 6 5 5 5 7 8 9 8 6 4 7 7 7 7 7 6 7 7 7 7 6 6 6 7 7 7 7 6 6 5 4 2 1 1 0 0 1 1 2 3 3 3
10 6 7 8 9 9 8 7 7 7 7 6 7 8 9 8 7 6 6 6 7 6 6 6 6 6 7 7 7 6 6 5 5 3 1 1 1 1 1 1 1 3 3 3
7 6 8 10 10 9 8 5 5 8 9 7 9 6 11 11 10 9 9 8 7 7 6 6 6 6 6 6 6 6 6 6 5 3 3 2 1 1 1 1 1 2 2 3
7 8 10 10 8 7 2 5 7 8 7 5 8 8 8 11 11 12 11 9 8 7 7 6 6 6 6 6 6 6 6 6 5 5 4 2 2 2 2 2 2 2 2 3
5 6 6 5 5 5 5 6 6 8 8 9 6 8 5 8 10 11 11 11 9 9 8 7 7 6 6 6 6 6 6 6 6 6 5 5 4 3 2 3 3 2 2 3
9 9 6 6 8 9 9 8 7 8 8 5 4 6 1 4 4 7 11 12 11 9 8 8 7 6 5 6 6 6 6 6 6 6 6 5 4 3 3 3 3 3 3 3
10 10 9 8 7 7 10 10 6 5 5 2 6 5 4 5 4 6 9 12 12 11 9 8 7 6 5 5 5 5 6 6 6 6 6 5 4 3 4 4 4 4 3 4
6 6 8 6 5 6 9 8 6 7 5 5 3 3 5 6 7 8 10 12 12 11 9 8 7 6 5 5 5 4 5 5 6 6 5 5 5 5 5 4 4 4 4 3
3 5 7 7 7 3 5 4 5 7 6 6 4 5 3 8 10 11 12 13 13 12 10 9 7 6 5 5 4 4 5 5 5 5 5 5 5 5 5 5 6 6 5 4
4 5 6 8 8 7 6 6 6 6 6 8 5 0 4 3 7 10 12 13 13 13 11 9 8 7 6 5 4 4 4 5 5 5 5 5 5 5 5 5 6 5 5 5
2 4 5 5 2 2 6 5 7 7 6 7 8 1 5 2 5 8 10 12 12 12 11 10 9 7 6 5 4 4 4 4 5 5 5 5 5 5 5 6 6 5 5 5
2 4 6 7 8 7 5 4 6 7 6 7 8 0 6 4 6 8 10 12 12 12 11 10 9 7 6 6 4 4 4 4 4 4 5 5 5 5 6 6 5 5 6 6
4 3 5 4 2 3 5 5 6 8 7 7 7 4 3 4 6 8 10 11 12 11 11 10 9 7 6 5 5 4 4 4 4 4 5 5 5 5 5 5 5 5 5 6
3 2 2 3 3 3 4 5 6 7 8 8 7 6 2 3 6 8 10 12 12 12 11 10 9 8 7 6 5 4 4 4 4 4 5 5 4 5 5 5 5 6 6 6
1 2 2 3 3 4 5 5 5 6 6 7 7 3 5 6 7 9 10 12 12 12 11 10 10 9 8 7 6 4 4 4 4 4 5 5 5 5 6 6 5 6 6 6
2 3 4 3 3 6 5 3 4 4 4 6 6 3 6 7 8 8 9 10 11 11 11 11 10 9 7 7 6 5 4 5 5 5 5 5 5 5 5 6 6 6 6 6
3 3 3 3 4 5 3 4 2 3 1 2 3 5 5 6 7 7 7 9 10 11 11 10 9 9 8 7 6 5 5 5 5 5 5 5 5 5 5 6 6 6 5 6
4 4 3 4 5 3 3 2 2 3 0 3 3 7 8 10 9 7 6 7 9 10 10 10 9 9 8 8 7 6 6 5 5 5 5 5 5 5 5 6 7 6 5 6
5 5 5 4 5 2 4 4 2 5 3 5 4 7 8 9 5 6 8 9 10 11 10 10 10 10 9 8 7 7 6 6 6 6 5 5 5 6 6 6 6 5 4 4
5 5 5 5 4 1 6 3 4 4 5 4 4 6 7 3 6 11 12 11 11 12 12 11 11 9 8 8 7 7 7 6 6 6 6 6 6 6 6 5 4 4 4 5
3 3 3 4 4 3 6 2 4 6 4 4 5 7 8 10 13 13 13 12 12 12 12 11 10 9 8 8 7 7 7 7 6 6 6 6 5 5 5 5 4 4 4 5
2 4 3 3 4 5 4 5 4 2 4 5 7 9 11 12 13 13 13 12 12 12 11 10 10 10 9 7 7 8 7 6 7 6 6 5 5 4 4 3 4 3 3 3
2 1 2 1 3 3 3 4 4 4 5 7 9 11 12 13 13 13 12 12 12 11 11 10 11 11 9 8 7 7 7 6 7 6 6 5 4 4 4 2 2 3 2 2
2 2 2 1 2 3 4 4 5 7 8 10 10 10 12 14 14 13 12 12 11 11 10 10 10 10 10 9 8 7 7 6 6 6 5 4 4 4 4 4 5 4 6 6
2 2 3 2 3 1 3 4 6 8 9 10 11 11 12 12 14 13 12 11 11 11 10 10 10 10 10 9 8 8 7 7 6 6 4 3 4 3 3 4 5 6 5 4
Wind_Direction
189 204 193 181 210 186 175 175 158 133 141 180 159 146 151 158 164 150 138 129 119 106 91 75 66 61 61 58 53 47 42 42 42 60 325 194 117 60 64 17 358 350 348 328
191 199 175 165 182 194 184 178 151 133 142 184 156 153 155 168 176 167 156 149 139 126 106 86 73 66 61 58 53 50 42 32 26 35 8 354 356 71 65 13 30 7 4 342
198 152 159 182 184 195 196 198 166 149 149 167 168 176 176 174 177 176 176 160 148 138 121 102 81 65 59 54 47 44 39 37 33 23 31 94 134 118 66 16 31 9 0 360
197 153 181 193 192 201 189 186 182 173 195 181 210 216 175 178 186 191 187 174 158 143 127 109 91 72 60 55 52 48 43 37 31 30 40 38 44 55 30 1 14 17 17 9
170 175 189 194 187 212 163 163 194 205 227 213 207 251 157 175 197 195 187 175 161 146 129 111 95 83 70 61 58 54 51 45 36 36 46 51 60 59 41 20 27 13 36 23
165 176 206 190 170 180 148 166 184 215 227 228 204 248 176 179 202 187 178 168 159 147 133 119 106 94 79 67 64 61 57 51 43 42 46 49 55 52 42 29 22 22 35 27
173 177 179 183 171 175 199 202 204 207 218 215 153 244 81 127 172 179 171 162 157 150 141 134 121 105 89 75 63 60 60 55 47 48 47 46 48 54 49 26 29 19 24 20
181 174 176 191 211 193 207 230 250 249 244 193 171 232 97 111 134 151 154 155 153 153 147 138 124 112 99 84 69 61 61 58 52 51 46 41 36 39 46 37 26 30 25 26
190 166 156 181 215 230 202 227 281 274 263 260 197 165 142 152 161 158 156 157 157 154 149 141 130 118 105 94 79 66 67 64 57 54 51 49 45 45 46 42 38 42 37 30
210 179 166 168 186 197 263 225 232 256 263 264 237 224 191 175 182 176 172 168 159 154 152 143 134 127 116 107 98 82 71 66 59 56 47 52 49 49 47 45 46 40 35 32
224 206 176 187 209 193 189 207 241 261 280 282 277 281 61 159 179 179 175 168 160 158 153 146 142 136 126 113 99 88 82 76 66 59 54 53 51 50 51 52 47 41 35 35
216 241 197 185 152 265 239 236 234 257 259 268 285 22 78 114 159 165 160 159 156 153 150 147 143 137 130 117 101 87 81 79 72 65 60 58 57 56 52 50 46 43 43 43
193 219 203 188 183 191 217 226 246 260 269 268 275 19 103 123 139 147 149 151 150 150 151 148 145 143 136 125 114 101 91 80 74 72 69 63 54 55 53 47 44 47 48 47
279 243 257 254 255 201 213 219 233 249 262 271 281 303 135 147 147 147 149 151 151 154 155 150 148 144 136 130 122 114 96 87 85 79 72 64 56 54 53 53 55 57 55 54
276 245 275 303 302 273 256 251 237 249 279 292 308 315 22 139 153 150 150 151 154 157 157 155 151 145 144 138 128 117 105 96 90 85 77 71 68 68 64 59 58 60 61 61
299 254 237 243 237 248 255 258 251 252 270 280 286 313 75 111 131 143 152 158 159 159 157 156 152 149 149 141 135 131 124 112 102 88 80 77 72 72 69 64 63 64 64 64
229 229 245 239 239 244 236 264 261 257 283 297 306 51 122 136 144 153 157 161 160 158 156 155 153 150 148 144 144 141 126 119 111 98 91 86 82 76 72 71 70 69 70 70
243 247 251 253 243 243 61 43 316 273 310 350 54 98 124 126 128 132 145 153 154 155 152 150 148 146 146 146 143 135 125 118 111 99 90 87 83 81 79 78 74 71 72 72
224 246 252 257 247 225 135 95 329 283 97 56 99 118 119 120 123 116 124 136 142 144 142 141 142 142 146 146 142 135 126 121 113 101 93 88 81 79 80 77 72 67 70 74
176 230 250 252 268 265 75 57 342 272 168 88 117 140 146 165 170 130 132 130 130 131 132 133 137 143 146 143 141 137 129 123 112 104 97 88 82 80 79 77 75 75 74 73
179 199 235 252 261 56 51 7 273 279 52 87 129 147 162 148 72 115 128 128 129 130 133 137 141 142 142 142 141 134 125 119 113 108 101 90 86 89 88 85 80 83 82 76
255 230 223 250 256 73 36 356 9 34 58 108 125 134 126 105 109 120 127 129 131 132 136 139 140 138 139 142 141 133 122 120 116 110 102 96 89 85 93 96 92 85 90 99
307 345 336 349 27 55 33 38 44 55 102 117 124 126 129 127 128 128 129 131 132 134 137 139 139 136 138 143 144 132 126 127 124 116 105 103 100 93 93 98 99 94 85 90
133 299 275 247 96 78 68 67 72 85 104 116 124 132 137 134 134 132 132 134 136 138 139 142 142 140 140 142 137 128 130 133 129 121 115 116 116 111 99 85 79 74 63 68
336 263 257 203 114 120 101 81 92 104 113 118 124 131 136 137 138 138 138 139 140 141 144 147 145 141 141 141 137 136 138 139 131 124 120 123 110 96 94 71 38 28 51 30
255 280 301 15 73 38 90 103 120 126 129 130 130 130 135 138 138 138 138 139 141 144 146 146 143 142 144 145 142 141 144 142 139 137 137 129 116 110 117 121 113 65 54 68